| time (UTC) | temp F | wind direction | speed MPH | gust MPH | rain 1hr in | rain 24hr in | rain mn in | humidity % | barometer mb |
| 20260506001526 | 63 | 294 | 0.0 | 0.0 | 0.00 | 0.11 | 0.11 | 86 | 1007.4 |
| 20260506000042 | 64 | 294 | 0.0 | 2.0 | 0.00 | 0.11 | 0.11 | 86 | 1007.1 |
| 20260505234525 | 64 | 294 | 0.0 | 1.0 | 0.00 | 0.11 | 0.11 | 86 | 1007.3 |
| 20260505233027 | 65 | 294 | 0.0 | 2.0 | 0.00 | 0.11 | 0.11 | 85 | 1007.1 |
| 20260505231529 | 65 | 294 | 0.0 | 2.0 | 0.00 | 0.11 | 0.11 | 85 | 1007.1 |
| 20260505230038 | 65 | 294 | 0.0 | 1.0 | 0.00 | 0.11 | 0.11 | 85 | 1007.0 |
| 20260505224524 | 65 | 294 | 0.0 | 2.0 | 0.00 | 0.11 | 0.11 | 84 | 1007.0 |
| 20260505223021 | 65 | 294 | 0.0 | 3.0 | 0.00 | 0.11 | 0.11 | 83 | 1007.0 |
| 20260505221521 | 66 | 294 | 1.0 | 3.0 | 0.00 | 0.11 | 0.11 | 81 | 1006.9 |
| 20260505220020 | 67 | 294 | 2.0 | 4.0 | 0.00 | 0.11 | 0.11 | 78 | 1007.0 |
| 20260505214521 | 67 | 294 | 0.0 | 3.0 | 0.00 | 0.11 | 0.11 | 77 | 1006.5 |
| 20260505213021 | 67 | 294 | 1.0 | 3.0 | 0.00 | 0.11 | 0.11 | 77 | 1006.3 |
| 20260505211528 | 66 | 294 | 1.0 | 4.0 | 0.00 | 0.11 | 0.11 | 80 | 1006.3 |
| 20260505210017 | 66 | 294 | 1.0 | 3.0 | 0.00 | 0.11 | 0.11 | 83 | 1006.4 |
| 20260505204515 | 65 | 294 | 2.0 | 4.0 | 0.11 | 0.11 | 0.11 | 81 | 1006.5 |
| 20260505203017 | 65 | 294 | 1.0 | 4.0 | 0.11 | 0.11 | 0.11 | 79 | 1006.8 |
| 20260505201513 | 65 | 294 | 0.0 | 4.0 | 0.11 | 0.11 | 0.11 | 76 | 1006.8 |
| 20260505200012 | 66 | 294 | 1.0 | 9.0 | 0.11 | 0.11 | 0.11 | 72 | 1006.6 |
| 20260505194510 | 75 | 269 | 11.0 | 22.0 | 0.00 | 0.00 | 0.00 | 43 | 1006.7 |
| 20260505193011 | 76 | 178 | 7.0 | 19.0 | 0.00 | 0.00 | 0.00 | 41 | 1004.9 |
| 20260505191512 | 78 | 155 | 12.0 | 22.0 | 0.00 | 0.00 | 0.00 | 39 | 1004.7 |
| 20260505190006 | 79 | 192 | 10.0 | 24.0 | 0.00 | 0.00 | 0.00 | 36 | 1004.6 |
| 20260505184504 | 78 | 157 | 11.0 | 23.0 | 0.00 | 0.00 | 0.00 | 38 | 1004.8 |
| 20260505183100 | 78 | 171 | 11.0 | 33.0 | 0.00 | 0.00 | 0.00 | 40 | 1005.5 |
| 20260505181641 | 77 | 161 | 17.0 | 27.0 | 0.00 | 0.00 | 0.00 | 42 | 1005.7 |
| 20260505180104 | 76 | 203 | 6.0 | 12.0 | 0.00 | 0.00 | 0.00 | 48 | 1006.0 |
| 20260505174554 | 76 | 161 | 8.0 | 16.0 | 0.00 | 0.00 | 0.00 | 45 | 1006.1 |
| 20260505173054 | 75 | 158 | 9.0 | 16.0 | 0.00 | 0.00 | 0.00 | 46 | 1006.4 |
| 20260505171600 | 75 | 194 | 6.0 | 20.0 | 0.00 | 0.00 | 0.00 | 45 | 1006.3 |
| 20260505170052 | 76 | 209 | 12.0 | 23.0 | 0.00 | 0.00 | 0.00 | 46 | 1006.1 |
| 20260505164549 | 76 | 113 | 11.0 | 26.0 | 0.00 | 0.00 | 0.00 | 46 | 1006.1 |
| 20260505163048 | 75 | 171 | 10.0 | 18.0 | 0.00 | 0.00 | 0.00 | 46 | 1006.3 |
| 20260505161548 | 76 | 162 | 8.0 | 22.0 | 0.00 | 0.00 | 0.00 | 48 | 1006.6 |
| 20260505153045 | 75 | 157 | 11.0 | 19.0 | 0.00 | 0.00 | 0.00 | 46 | 1006.7 |
| 20260505151541 | 75 | 155 | 10.0 | 19.0 | 0.00 | 0.00 | 0.00 | 45 | 1006.7 |
| 20260505124508 | 63 | 157 | 4.0 | 12.0 | 0.00 | 0.00 | 0.00 | 64 | 1008.1 |
| 20260505123005 | 63 | 163 | 7.0 | 13.0 | 0.00 | 0.00 | 0.00 | 65 | 1008.1 |
| 20260505121603 | 62 | 151 | 6.0 | 14.0 | 0.00 | 0.00 | 0.00 | 66 | 1008.1 |
| 20260505120001 | 61 | 173 | 7.0 | 14.0 | 0.00 | 0.00 | 0.00 | 66 | 1008.1 |
| 20260505114601 | 60 | 163 | 3.0 | 7.0 | 0.00 | 0.00 | 0.00 | 69 | 1008.0 |
| 20260505113104 | 60 | 163 | 2.0 | 7.0 | 0.00 | 0.00 | 0.00 | 67 | 1008.3 |
| 20260505111602 | 60 | 162 | 4.0 | 8.0 | 0.00 | 0.00 | 0.00 | 67 | 1008.2 |
| 20260505110112 | 58 | 171 | 4.0 | 8.0 | 0.00 | 0.00 | 0.00 | 70 | 1008.1 |
| 20260505101601 | 57 | 171 | 2.0 | 4.0 | 0.00 | 0.00 | 0.00 | 69 | 1007.6 |
| 20260505100052 | 57 | 171 | 1.0 | 3.0 | 0.00 | 0.00 | 0.00 | 68 | 1007.6 |
| 20260505094549 | 57 | 171 | 2.0 | 5.0 | 0.00 | 0.00 | 0.00 | 66 | 1007.5 |
| 20260505093049 | 58 | 171 | 3.0 | 7.0 | 0.00 | 0.00 | 0.00 | 65 | 1007.2 |
| 20260505091553 | 58 | 172 | 3.0 | 7.0 | 0.00 | 0.00 | 0.00 | 64 | 1007.2 |
| 20260505090045 | 58 | 173 | 4.0 | 7.0 | 0.00 | 0.00 | 0.00 | 64 | 1007.0 |
| 20260505084553 | 59 | 173 | 2.0 | 8.0 | 0.00 | 0.00 | 0.00 | 63 | 1007.0 |
| 20260505083054 | 59 | 173 | 2.0 | 9.0 | 0.00 | 0.00 | 0.00 | 62 | 1007.0 |
| 20260505081539 | 60 | 167 | 5.0 | 10.0 | 0.00 | 0.00 | 0.00 | 61 | 1007.1 |
| 20260505080038 | 60 | 174 | 3.0 | 10.0 | 0.00 | 0.00 | 0.00 | 60 | 1007.1 |
| 20260505074536 | 60 | 164 | 4.0 | 10.0 | 0.00 | 0.00 | 0.00 | 60 | 1007.2 |
| 20260505073035 | 60 | 188 | 4.0 | 14.0 | 0.00 | 0.00 | 0.00 | 59 | 1007.1 |
| 20260505071533 | 61 | 180 | 3.0 | 9.0 | 0.00 | 0.00 | 0.00 | 58 | 1007.2 |
| 20260505070032 | 61 | 177 | 3.0 | 10.0 | 0.00 | 0.00 | 0.00 | 57 | 1007.4 |
| 20260505064537 | 62 | 190 | 5.0 | 10.0 | 0.00 | 0.00 | 0.00 | 55 | 1007.4 |
| 20260505063031 | 62 | 157 | 6.0 | 12.0 | 0.00 | 0.00 | 0.00 | 55 | 1007.4 |
| 20260505061529 | 62 | 172 | 6.0 | 10.0 | 0.00 | 0.00 | 0.00 | 55 | 1007.3 |
| 20260505054543 | 61 | 173 | 5.0 | 9.0 | 0.00 | 0.00 | 0.00 | 57 | 1007.6 |
| 20260505053027 | 60 | 191 | 2.0 | 5.0 | 0.00 | 0.00 | 0.00 | 58 | 1007.7 |
| 20260505051526 | 60 | 160 | 4.0 | 7.0 | 0.00 | 0.00 | 0.00 | 56 | 1007.6 |
| 20260505041518 | 61 | 171 | 5.0 | 9.0 | 0.00 | 0.00 | 0.00 | 55 | 1007.3 |
| 20260505040016 | 62 | 170 | 3.0 | 7.0 | 0.00 | 0.00 | 0.00 | 55 | 1007.5 |
| 20260505034524 | 62 | 163 | 4.0 | 6.0 | 0.00 | 0.00 | 0.00 | 54 | 1007.5 |
| 20260505033015 | 62 | 167 | 3.0 | 6.0 | 0.00 | 0.00 | 0.00 | 53 | 1007.5 |
| 20260505031513 | 62 | 167 | 3.0 | 9.0 | 0.00 | 0.00 | 0.00 | 52 | 1007.5 |
| 20260505030033 | 63 | 167 | 2.0 | 7.0 | 0.00 | 0.00 | 0.00 | 51 | 1007.5 |
| 20260505024516 | 64 | 167 | 4.0 | 8.0 | 0.00 | 0.00 | 0.00 | 50 | 1007.7 |
| 20260505023012 | 64 | 177 | 4.0 | 9.0 | 0.00 | 0.00 | 0.00 | 48 | 1007.8 |
| 20260505021511 | 64 | 163 | 5.0 | 11.0 | 0.00 | 0.00 | 0.00 | 48 | 1008.0 |
| 20260505020011 | 64 | 173 | 3.0 | 7.0 | 0.00 | 0.00 | 0.00 | 47 | 1007.9 |
| 20260505014518 | 64 | 179 | 2.0 | 6.0 | 0.00 | 0.00 | 0.00 | 48 | 1007.8 |
| 20260505013017 | 64 | 173 | 0.0 | 5.0 | 0.00 | 0.00 | 0.00 | 48 | 1007.6 |
| 20260505011508 | 65 | 190 | 1.0 | 5.0 | 0.00 | 0.00 | 0.00 | 47 | 1007.6 |
| 20260505010008 | 65 | 191 | 1.0 | 5.0 | 0.00 | 0.00 | 0.00 | 46 | 1007.5 |
| 20260505004522 | 66 | 191 | 1.0 | 7.0 | 0.00 | 0.00 | 0.00 | 44 | 1007.3 |
| 20260505003007 | 67 | 150 | 3.0 | 10.0 | 0.00 | 0.00 | 0.00 | 43 | 1007.3 |